CW3786 Weather Reports


Display with metric or nautical units.
time (UTC)temp
F
wind
direction
speed
MPH
gust
MPH
rain 1hr
in
rain 24hr
in
rain mn
in
humidity
%
barometer
mb
20260509203129 77 360 1.0 5.0 0.00 0.00 0.00 56 1007.1
20260509202717 78 327 3.0 5.0 0.00 0.00 0.00 54 1007.1
20260509202110 77 65 3.0 5.0 0.00 0.00 0.00 58 1007.1
20260509201606 76 71 1.0 5.0 0.00 0.00 0.00 59 1007.1
20260509201104 76 74 0.0 4.0 0.00 0.00 0.00 58 1007.2
20260509200603 76 73 0.0 10.0 0.00 0.00 0.00 59 1007.2
20260509200118 75 73 1.0 10.0 0.00 0.00 0.00 61 1007.2
20260509195613 75 332 0.0 4.0 0.00 0.00 0.00 60 1007.5
20260509195112 75 360 0.0 4.0 0.00 0.00 0.00 59 1007.5
20260509194606 75 40 0.0 5.0 0.00 0.00 0.00 60 1007.5
20260509194103 74 81 0.0 5.0 0.00 0.00 0.00 62 1007.6
20260509193637 74 28 0.0 5.0 0.00 0.00 0.00 62 1007.6
20260509193127 73 73 0.0 5.0 0.00 0.00 0.00 63 1007.6
20260509192729 73 306 1.0 5.0 0.00 0.00 0.00 66 1007.7
20260509192130 72 292 1.0 7.0 0.00 0.00 0.00 64 1007.7
20260509191617 72 277 2.0 5.0 0.00 0.00 0.00 64 1007.7
20260509191113 72 17 0.0 3.0 0.00 0.00 0.00 65 1007.7
20260509190627 72 360 0.0 4.0 0.00 0.00 0.00 64 1007.7
20260509185618 71 306 0.0 7.0 0.00 0.00 0.00 66 1007.9
20260509185113 71 279 0.0 7.0 0.00 0.00 0.00 67 1007.9
20260509184609 71 312 0.0 7.0 0.00 0.00 0.00 67 1007.9
20260509184108 71 292 1.0 7.0 0.00 0.00 0.00 65 1008.1
20260509183604 72 293 3.0 7.0 0.00 0.00 0.00 63 1008.1
20260509183118 73 312 2.0 7.0 0.00 0.00 0.00 62 1008.1
20260509182626 73 26 2.0 5.0 0.00 0.00 0.00 64 1008.1
20260509182133 72 74 0.0 0.0 0.00 0.00 0.00 64 1008.1
20260509181603 71 74 0.0 0.0 0.00 0.00 0.00 66 1008.1
20260509181141 71 74 0.0 0.0 0.00 0.00 0.00 66 1008.1
20260509180622 70 74 0.0 1.0 0.00 0.00 0.00 66 1008.1
20260509180113 70 75 0.0 1.0 0.00 0.00 0.00 66 1008.1
20260509175609 69 75 0.0 4.0 0.00 0.00 0.00 67 1008.3
20260509175104 69 75 2.0 5.0 0.00 0.00 0.00 70 1008.3
20260509174556 69 75 0.0 5.0 0.00 0.00 0.00 70 1008.3
20260509174208 68 351 0.0 5.0 0.00 0.00 0.00 72 1008.2
20260509173603 67 87 0.0 5.0 0.00 0.00 0.00 75 1008.2
20260509173057 66 57 0.0 2.0 0.00 0.00 0.00 75 1008.2
20260509172636 66 56 0.0 0.0 0.00 0.00 0.00 75 1008.2
20260509172110 66 56 0.0 0.0 0.00 0.00 0.00 76 1008.2
20260509171609 65 57 0.0 0.0 0.00 0.00 0.00 77 1008.2
20260509171104 65 87 0.0 0.0 0.00 0.00 0.00 77 1008.1
20260509170618 65 87 0.0 2.0 0.00 0.00 0.00 79 1008.1
20260509170134 64 87 0.0 3.0 0.00 0.00 0.00 80 1008.1
20260509165608 64 87 0.0 5.0 0.00 0.00 0.00 80 1008.1
20260509165124 63 87 3.0 5.0 0.00 0.00 0.00 81 1008.1
20260509164617 63 175 0.0 2.0 0.00 0.00 0.00 82 1008.1
20260509164204 63 175 1.0 2.0 0.00 0.00 0.00 83 1008.1
20260509163633 62 194 0.0 0.0 0.00 0.00 0.00 83 1008.1
20260509163108 62 173 0.0 0.0 0.00 0.00 0.00 83 1008.1
20260509162635 62 173 0.0 0.0 0.00 0.00 0.00 84 1008.1
20260509162108 62 173 0.0 0.0 0.00 0.00 0.00 84 1008.1
20260509161604 62 206 0.0 2.0 0.00 0.00 0.00 84 1008.1
20260509161119 62 206 0.0 2.0 0.00 0.00 0.00 85 1008.1
20260509160614 62 80 0.0 4.0 0.00 0.00 0.00 85 1008.1
20260509160132 61 80 0.0 4.0 0.00 0.00 0.00 86 1008.1
20260509155605 61 78 0.0 0.0 0.00 0.00 0.00 86 1008.1
20260509155105 61 78 0.0 4.0 0.00 0.00 0.00 87 1008.1
20260509154620 61 78 0.0 4.0 0.00 0.00 0.00 87 1008.1
20260509154132 61 88 0.0 1.0 0.00 0.00 0.00 88 1008.2
20260509153610 60 88 0.0 1.0 0.00 0.00 0.00 88 1008.2
20260509153107 60 98 0.0 3.0 0.00 0.00 0.00 88 1008.2
20260509152711 60 98 0.0 3.0 0.00 0.00 0.00 89 1008.2
20260509152109 60 99 0.0 4.0 0.00 0.00 0.00 89 1008.2
20260509151605 60 101 1.0 4.0 0.00 0.00 0.00 90 1008.2
20260509151104 60 102 0.0 0.0 0.00 0.00 0.00 90 1008.1
20260509150600 60 102 0.0 0.0 0.00 0.00 0.00 90 1008.1
20260509150056 59 22 0.0 0.0 0.00 0.00 0.00 91 1008.1
20260509145614 59 19 0.0 0.0 0.00 0.00 0.00 91 1008.2
20260509145109 59 47 0.0 0.0 0.00 0.00 0.00 91 1008.2
20260509144603 59 47 0.0 4.0 0.00 0.00 0.00 91 1008.2
20260509144102 59 47 0.0 4.0 0.00 0.00 0.00 91 1008.1
20260509143618 59 46 0.0 0.0 0.00 0.00 0.00 92 1008.1
20260509143111 59 46 0.0 0.0 0.00 0.00 0.00 92 1008.1
20260509142637 59 46 0.0 0.0 0.00 0.00 0.00 92 1007.9
20260509142133 58 46 0.0 3.0 0.00 0.00 0.00 92 1007.9
20260509141617 58 46 0.0 3.0 0.00 0.00 0.00 92 1007.9
20260509141115 58 44 0.0 0.0 0.00 0.00 0.00 92 1007.7
20260509140602 58 117 0.0 0.0 0.00 0.00 0.00 92 1007.7
20260509140138 58 117 0.0 0.0 0.00 0.00 0.00 92 1007.7
20260509135612 58 117 0.0 0.0 0.00 0.00 0.00 92 1007.7
20260509135108 58 117 0.0 0.0 0.00 0.00 0.00 92 1007.7
20260509134623 58 117 0.0 3.0 0.00 0.00 0.00 92 1007.7
20260509134118 58 117 1.0 3.0 0.00 0.00 0.00 92 1007.7
20260509133612 58 142 0.0 3.0 0.00 0.00 0.00 92 1007.7
20260509133108 58 48 0.0 3.0 0.00 0.00 0.00 92 1007.7
20260509132607 58 47 0.0 3.0 0.00 0.00 0.00 92 1007.6
20260509132103 58 46 0.0 0.0 0.00 0.00 0.00 92 1007.6
20260509131634 58 46 0.0 0.0 0.00 0.00 0.00 92 1007.6
20260509131200 58 46 0.0 0.0 0.00 0.00 0.00 92 1007.5
20260509130601 58 46 0.0 3.0 0.00 0.00 0.00 92 1007.5
20260509130116 58 46 1.0 3.0 0.00 0.00 0.00 92 1007.5
20260509125611 58 46 1.0 2.0 0.00 0.00 0.00 92 1007.3
20260509125126 58 46 0.0 2.0 0.00 0.00 0.00 92 1007.3
20260509124624 58 46 0.0 0.0 0.00 0.00 0.00 92 1007.3
20260509124118 58 46 0.0 0.0 0.00 0.00 0.00 92 1007.3
20260509123612 58 46 0.0 0.0 0.00 0.00 0.00 92 1007.3
20260509123133 58 46 0.0 0.0 0.00 0.00 0.00 92 1007.3
20260509122628 58 46 0.0 0.0 0.00 0.00 0.00 92 1007.4
20260509122106 58 46 0.0 0.0 0.00 0.00 0.00 92 1007.4
20260509121600 58 46 0.0 0.0 0.00 0.00 0.00 92 1007.4
20260509121114 58 46 0.0 0.0 0.00 0.00 0.00 92 1007.5
20260509120612 58 46 0.0 2.0 0.00 0.00 0.00 92 1007.5
20260509120107 58 46 0.0 2.0 0.00 0.00 0.00 92 1007.5
20260509115606 58 46 0.0 0.0 0.00 0.00 0.00 92 1007.6
20260509115104 58 46 0.0 0.0 0.00 0.00 0.00 92 1007.6
20260509114559 58 46 0.0 0.0 0.00 0.00 0.00 92 1007.6
20260509114139 58 46 0.0 1.0 0.00 0.00 0.00 92 1007.5
20260509113613 58 46 0.0 3.0 0.00 0.00 0.00 92 1007.5
20260509113127 58 46 1.0 3.0 0.00 0.00 0.00 92 1007.5
20260509112614 58 45 0.0 2.0 0.00 0.00 0.00 92 1007.3
20260509112134 58 45 0.0 0.0 0.00 0.00 0.00 91 1007.3
20260509111711 58 45 0.0 0.0 0.00 0.00 0.00 91 1007.3
20260509111132 58 45 0.0 0.0 0.00 0.00 0.00 91 1007.5
20260509110605 58 45 0.0 0.0 0.00 0.00 0.00 91 1007.5
20260509110058 58 45 0.0 0.0 0.00 0.00 0.00 91 1007.5
20260509105553 58 45 0.0 0.0 0.00 0.00 0.00 91 1007.5
20260509105113 58 45 0.0 0.0 0.00 0.00 0.00 91 1007.5
20260509104608 58 45 0.0 0.0 0.00 0.00 0.00 91 1007.5
20260509104110 59 45 0.0 2.0 0.00 0.00 0.00 91 1007.6
20260509103605 59 45 0.0 2.0 0.00 0.00 0.00 91 1007.6
20260509103101 59 44 0.0 2.0 0.00 0.00 0.00 91 1007.6
20260509102615 59 44 0.0 0.0 0.00 0.00 0.00 91 1007.6
20260509102109 59 44 0.0 2.0 0.00 0.00 0.00 91 1007.6
20260509101633 59 44 1.0 2.0 0.00 0.00 0.00 91 1007.6
20260509101109 59 44 0.0 1.0 0.00 0.00 0.00 91 1007.6
20260509100557 59 44 0.0 1.0 0.00 0.00 0.00 91 1007.6
20260509100113 59 44 0.0 0.0 0.00 0.00 0.00 91 1007.6
20260509095610 59 44 0.0 0.0 0.00 0.00 0.00 91 1007.7
20260509095126 59 44 0.0 0.0 0.00 0.00 0.00 91 1007.7
20260509094626 59 44 0.0 0.0 0.00 0.00 0.00 91 1007.7
20260509094113 59 44 0.0 0.0 0.00 0.00 0.00 91 1007.7
20260509093631 59 44 0.0 3.0 0.00 0.00 0.00 91 1007.7
20260509093105 59 44 0.0 3.0 0.00 0.00 0.00 92 1007.7
20260509092621 59 43 0.0 0.0 0.00 0.00 0.00 92 1007.8
20260509092134 59 43 0.0 3.0 0.00 0.00 0.00 92 1007.8
20260509091611 59 43 1.0 3.0 0.00 0.00 0.00 92 1007.8
20260509091107 59 151 0.0 0.0 0.00 0.00 0.00 92 1007.9
20260509090622 59 151 0.0 0.0 0.00 0.00 0.00 92 1007.9
20260509090056 59 151 0.0 0.0 0.00 0.00 0.00 92 1007.9
20260509085634 59 152 0.0 0.0 0.00 0.00 0.00 92 1007.9
20260509085107 59 151 0.0 0.0 0.00 0.00 0.00 92 1007.9
20260509084558 59 151 0.0 0.0 0.00 0.00 0.00 92 1007.9
20260509084220 59 151 0.0 0.0 0.00 0.00 0.00 92 1008.1
20260509083609 59 151 0.0 0.0 0.00 0.00 0.00 92 1008.1
20260509083125 59 151 0.0 0.0 0.00 0.00 0.00 92 1008.1
20260509082618 59 151 0.0 0.0 0.00 0.00 0.00 92 1008.2
20260509082116 59 151 0.0 0.0 0.00 0.00 0.00 92 1008.2
20260509081611 59 151 0.0 0.0 0.00 0.00 0.00 92 1008.2
20260509081127 59 151 0.0 0.0 0.00 0.00 0.00 92 1008.2
20260509080600 59 151 0.0 0.0 0.00 0.00 0.00 92 1008.2
20260509080059 59 151 0.0 0.0 0.00 0.00 0.00 92 1008.2
20260509075617 59 151 0.0 0.0 0.00 0.00 0.00 92 1008.4
20260509075111 59 151 0.0 0.0 0.00 0.00 0.00 93 1008.4
20260509074609 58 151 0.0 0.0 0.00 0.00 0.00 92 1008.4
20260509074104 58 151 0.0 0.0 0.00 0.00 0.00 92 1008.6
20260509073659 58 151 0.0 0.0 0.00 0.00 0.00 93 1008.6
20260509073138 58 151 0.0 1.0 0.00 0.00 0.00 93 1008.6
20260509072611 58 151 0.0 1.0 0.00 0.00 0.00 93 1008.5
20260509072107 58 151 0.0 2.0 0.00 0.00 0.00 93 1008.5
20260509071602 58 151 0.0 2.0 0.00 0.00 0.00 93 1008.5
20260509071101 58 159 0.0 1.0 0.00 0.00 0.00 93 1008.4
20260509070617 58 194 0.0 2.0 0.00 0.00 0.00 93 1008.4
20260509070110 58 196 0.0 1.0 0.00 0.00 0.00 93 1008.4
20260509065605 58 265 0.0 0.0 0.00 0.00 0.00 93 1008.6
20260509065108 58 265 0.0 0.0 0.00 0.00 0.00 93 1008.6
20260509064604 58 265 0.0 0.0 0.00 0.00 0.00 93 1008.6
20260509064102 58 265 0.0 0.0 0.00 0.00 0.00 92 1008.7
20260509063616 58 265 0.0 0.0 0.00 0.00 0.00 92 1008.7
20260509063115 58 265 0.0 0.0 0.00 0.00 0.00 92 1008.7
20260509062601 58 265 0.0 0.0 0.00 0.00 0.00 92 1008.8
20260509062116 58 265 0.0 0.0 0.00 0.00 0.00 92 1008.8
20260509061612 58 265 0.0 0.0 0.00 0.00 0.00 92 1008.8
20260509061108 58 270 0.0 0.0 0.00 0.00 0.00 92 1008.8
20260509060623 58 270 0.0 0.0 0.00 0.00 0.00 92 1008.8
20260509060137 58 270 0.0 0.0 0.00 0.00 0.00 92 1008.8
20260509055609 58 270 0.0 0.0 0.00 0.00 0.00 92 1008.8
20260509055102 57 270 0.0 0.0 0.00 0.00 0.00 92 1008.8
20260509054704 57 270 0.0 0.0 0.00 0.00 0.00 92 1008.8
20260509054124 57 270 0.0 0.0 0.00 0.00 0.00 92 1008.8
20260509053606 57 270 0.0 0.0 0.00 0.00 0.00 92 1008.8
20260509053101 57 270 0.0 0.0 0.00 0.00 0.00 92 1008.8
20260509052616 57 270 0.0 0.0 0.00 0.00 0.00 91 1008.7
20260509052132 57 270 0.0 0.0 0.00 0.00 0.00 91 1008.7
20260509051626 57 270 0.0 0.0 0.00 0.00 0.00 91 1008.7
20260509051100 57 270 0.0 0.0 0.00 0.00 0.00 91 1008.7
20260509050614 57 270 0.0 0.0 0.00 0.00 0.00 91 1008.7
20260509050113 57 270 0.0 0.0 0.00 0.00 0.00 91 1008.7
20260509045610 57 270 0.0 0.0 0.00 0.00 0.00 91 1008.6
20260509045105 57 270 0.0 0.0 0.00 0.00 0.00 91 1008.6
20260509044621 57 270 0.0 0.0 0.00 0.00 0.00 91 1008.6
20260509044225 57 270 0.0 0.0 0.00 0.00 0.00 91 1008.7
20260509043558 57 270 0.0 0.0 0.00 0.00 0.00 91 1008.7
20260509043114 57 270 0.0 0.0 0.00 0.00 0.00 90 1008.7
20260509042630 57 270 0.0 0.0 0.00 0.00 0.00 90 1008.6
20260509042103 57 270 0.0 0.0 0.00 0.00 0.00 90 1008.6
20260509041558 58 270 0.0 0.0 0.00 0.00 0.00 90 1008.6
20260509041133 58 270 0.0 0.0 0.00 0.00 0.00 90 1008.3
20260509040610 57 270 0.0 0.0 0.00 0.00 0.00 90 1008.3
20260509040106 57 270 0.0 0.0 0.00 0.00 0.00 90 1008.3
20260509035601 58 270 0.0 0.0 0.00 0.00 0.00 90 1008.2
20260509035057 58 270 0.0 0.0 0.00 0.00 0.00 90 1008.2
20260509034610 58 270 0.0 1.0 0.00 0.00 0.00 89 1008.2
20260509034132 58 270 0.0 1.0 0.00 0.00 0.00 89 1008.0
20260509033616 58 270 0.0 0.0 0.00 0.00 0.00 89 1008.0
20260509033109 58 270 0.0 2.0 0.00 0.00 0.00 89 1008.0
20260509032607 58 270 0.0 2.0 0.00 0.00 0.00 89 1008.1
20260509032103 58 269 0.0 1.0 0.00 0.00 0.00 89 1008.1
20260509031558 58 269 0.0 1.0 0.00 0.00 0.00 89 1008.1
20260509031112 58 269 0.0 1.0 0.00 0.00 0.00 89 1007.8
20260509030629 59 257 0.0 0.0 0.00 0.00 0.00 88 1007.8
20260509030129 59 259 0.0 2.0 0.00 0.00 0.00 88 1007.8
20260509025717 59 260 0.0 2.0 0.00 0.00 0.00 88 1007.6
20260509025128 59 259 0.0 3.0 0.00 0.00 0.00 88 1007.6
20260509024607 59 186 1.0 4.0 0.00 0.00 0.00 88 1007.6
20260509024059 59 284 0.0 5.0 0.00 0.00 0.00 87 1007.6
20260509023614 59 286 1.0 5.0 0.00 0.00 0.00 87 1007.6
20260509023149 59 279 0.0 0.0 0.00 0.00 0.00 87 1007.6
20260509022614 60 279 0.0 2.0 0.00 0.00 0.00 86 1007.5
20260509022110 60 279 0.0 4.0 0.00 0.00 0.00 86 1007.5
20260509021606 60 279 0.0 4.0 0.00 0.00 0.00 86 1007.5
20260509021101 60 257 0.0 4.0 0.00 0.00 0.00 85 1007.5
20260509020557 60 228 1.0 11.0 0.00 0.00 0.00 84 1007.5
20260509020111 60 280 2.0 11.0 0.00 0.00 0.00 84 1007.5
20260509015607 61 273 1.0 7.0 0.00 0.00 0.00 83 1007.2
20260509015106 62 214 2.0 7.0 0.00 0.00 0.00 82 1007.2
20260509014604 62 185 0.0 7.0 0.00 0.00 0.00 82 1007.2
20260509014100 62 292 1.0 6.0 0.00 0.00 0.00 81 1007.3
20260509013558 62 236 1.0 6.0 0.00 0.00 0.00 81 1007.3
20260509013131 62 213 1.0 5.0 0.00 0.00 0.00 80 1007.3
20260509012625 63 294 1.0 7.0 0.00 0.00 0.00 80 1007.4
20260509012103 63 223 1.0 7.0 0.00 0.00 0.00 79 1007.4
20260509011602 63 261 2.0 5.0 0.00 0.00 0.00 78 1007.4
20260509011118 64 287 1.0 5.0 0.00 0.00 0.00 77 1007.2
20260509010612 64 300 1.0 4.0 0.00 0.00 0.00 77 1007.2
20260509010130 65 202 0.0 5.0 0.00 0.00 0.00 77 1007.2
20260509005603 65 228 1.0 6.0 0.00 0.00 0.00 77 1007.5
20260509005057 65 259 2.0 10.0 0.00 0.00 0.00 77 1007.5
20260509004648 65 290 2.0 10.0 0.00 0.00 0.00 75 1007.5
20260509004138 66 211 2.0 7.0 0.00 0.00 0.00 73 1007.5
20260509003659 67 270 1.0 6.0 0.00 0.00 0.00 72 1007.5
20260509003106 67 175 1.0 11.0 0.00 0.00 0.00 71 1007.5
20260509002600 67 200 1.0 11.0 0.00 0.00 0.00 70 1007.5
20260509002058 68 267 1.0 6.0 0.00 0.00 0.00 69 1007.5
20260509001613 68 279 2.0 6.0 0.00 0.00 0.00 69 1007.5
20260509001108 68 249 0.0 7.0 0.00 0.00 0.00 69 1007.5
20260509000604 68 279 2.0 7.0 0.00 0.00 0.00 68 1007.5
20260509000058 68 255 0.0 4.0 0.00 0.00 0.00 68 1007.5
20260508235613 68 222 0.0 5.0 0.00 0.00 0.00 69 1007.5
20260508235108 68 209 2.0 6.0 0.00 0.00 0.00 69 1007.5
20260508234603 68 247 1.0 6.0 0.00 0.00 0.00 69 1007.5
20260508234102 68 238 2.0 5.0 0.00 0.00 0.00 67 1007.6
20260508233630 69 300 1.0 7.0 0.00 0.00 0.00 66 1007.6
20260508233136 69 269 3.0 7.0 0.00 0.00 0.00 65 1007.6
20260508232613 70 273 2.0 4.0 0.00 0.00 0.00 65 1007.7
20260508232107 70 220 0.0 6.0 0.00 0.00 0.00 65 1007.7
20260508231603 69 279 1.0 6.0 0.00 0.00 0.00 66 1007.7
20260508231105 69 219 1.0 5.0 0.00 0.00 0.00 65 1007.9
20260508230603 69 267 2.0 5.0 0.00 0.00 0.00 66 1007.9
20260508230146 69 275 1.0 6.0 0.00 0.00 0.00 66 1007.9
20260508225619 69 291 2.0 6.0 0.00 0.00 0.00 67 1008.0
20260508225132 69 246 0.0 9.0 0.00 0.00 0.00 67 1008.0
20260508224628 69 284 3.0 9.0 0.00 0.00 0.00 67 1008.0
20260508224122 69 265 3.0 10.0 0.00 0.00 0.00 66 1008.1
20260508223555 70 279 4.0 10.0 0.00 0.00 0.00 65 1008.1
20260508223112 70 277 3.0 6.0 0.00 0.00 0.00 65 1008.1
20260508222607 70 225 1.0 10.0 0.00 0.00 0.00 66 1008.3
20260508222123 70 217 2.0 10.0 0.00 0.00 0.00 64 1008.3
20260508221620 70 268 2.0 7.0 0.00 0.00 0.00 64 1008.3
20260508221114 71 202 0.0 9.0 0.00 0.00 0.00 64 1008.7
20260508220609 71 279 2.0 9.0 0.00 0.00 0.00 65 1008.7
20260508220103 72 274 4.0 8.0 0.00 0.00 0.00 62 1008.7
20260508215605 72 227 2.0 4.0 0.00 0.00 0.00 61 1008.7
20260508215100 73 256 0.0 6.0 0.00 0.00 0.00 61 1008.7
20260508214634 74 281 0.0 6.0 0.00 0.00 0.00 59 1008.7
20260508214133 74 246 2.0 6.0 0.00 0.00 0.00 59 1008.7
20260508213613 73 205 0.0 7.0 0.00 0.00 0.00 60 1008.7
20260508213109 73 278 1.0 7.0 0.00 0.00 0.00 58 1008.7
20260508212625 74 165 0.0 2.0 0.00 0.00 0.00 60 1008.9
20260508212129 73 165 0.0 3.0 0.00 0.00 0.00 61 1008.9
20260508211644 73 150 0.0 3.0 0.00 0.00 0.00 59 1008.9
20260508211102 74 121 0.0 1.0 0.00 0.00 0.00 58 1009.1
20260508210557 75 108 0.0 5.0 0.00 0.00 0.00 57 1009.1
20260508210057 75 99 0.0 10.0 0.00 0.00 0.00 58 1009.1
20260508205611 75 78 1.0 10.0 0.00 0.00 0.00 59 1009.2
20260508205107 75 76 2.0 7.0 0.00 0.00 0.00 60 1009.2
20260508204601 74 36 0.0 4.0 0.00 0.00 0.00 59 1009.2
20260508204134 74 18 0.0 2.0 0.00 0.00 0.00 60 1009.2
20260508203632 74 9 0.0 5.0 0.00 0.00 0.00 62 1009.2